Location: Mentone
(34.5413°N, 85.5351°W)
Time: 13:34:42
(UTC-05:00)

Okean O Rocket - Visible Passes

Search period start: 17 April 2014 00:00
Search period end: 27 April 2014 00:00
Orbit: 626 x 647 km, 97.9° (Epoch: 16 April)

Date Brightness Start Highest point End Pass type
(mag) Time Alt. Az. Time Alt. Az. Time Alt. Az.
17 Apr 1.9 04:01:02 10° N 04:04:47 55° NW 04:04:47 55° NW visible
18 Apr 4.2 02:48:15 10° NE 02:50:03 16° ENE 02:50:03 16° ENE visible
18 Apr 2.4 04:23:45 10° N 04:27:34 33° WNW 04:27:34 33° WNW visible
19 Apr 3.4 03:09:49 10° NE 03:12:49 29° ENE 03:12:49 29° ENE visible
19 Apr 3.1 04:46:51 10° NNW 04:49:55 19° WNW 04:50:20 19° WNW visible
20 Apr 2.3 03:31:52 10° NNE 03:35:35 53° ENE 03:35:35 53° ENE visible
20 Apr 3.7 05:11:11 10° NW 05:12:05 11° WNW 05:12:58 10° WNW visible
21 Apr 1.6 03:54:14 10° N 03:58:21 71° NW 03:58:21 71° NW visible
22 Apr 4.3 02:41:56 10° ENE 02:43:36 14° E 02:43:36 14° E visible
22 Apr 2.1 04:16:51 10° N 04:20:56 39° WNW 04:21:07 39° W visible
23 Apr 3.5 03:03:14 10° NE 03:06:22 26° E 03:06:22 26° E visible
23 Apr 2.9 04:39:49 10° NNW 04:43:11 22° WNW 04:43:53 21° W visible
24 Apr 2.4 03:25:10 10° NNE 03:29:07 48° E 03:29:07 48° E visible
24 Apr 3.5 05:03:29 10° NW 05:05:22 13° WNW 05:06:38 11° W visible
25 Apr 1.4 03:47:26 10° NNE 03:51:49 88° WNW 03:51:53 87° SW visible
26 Apr 4.4 02:35:50 10° ENE 02:37:07 12° E 02:37:07 12° E visible
26 Apr 1.8 04:09:58 10° N 04:14:10 47° WNW 04:14:38 45° W visible
